Regional Weather Roundup
Issued by NWS Little Rock, AR

Home | Current Version | Previous Version | Graphics & Text | Print | Product List | Glossary On
Versions: 1 2 3 4 5 6 7 8 9 10 11 12 13 14 15 16 17 18 19 20 21 22 23 24 25 26 27 28 29 30 31
000
ASUS44 KLZK 241705
RWRLZK

WEATHER ROUNDUP FOR ARKANSAS
NATIONAL WEATHER SERVICE LITTLE ROCK AR
1200 PM CDT MON APR 24 2017

NOTE: "FAIR" INDICATES FEW OR NO CLOUDS BELOW 12,000 FEET WITH NO
SIGNIFICANT WEATHER AND/OR OBSTRUCTIONS TO VISIBILITY.

ARZ001-003-010-029-241800-
NORTHWEST ARKANSAS

CITY           SKY/WX    TMP DP  RH WIND       PRES   REMARKS
FAYETTEVILLE   SUNNY     69  38  32 S14       29.94F
FORT SMITH     SUNNY     71  39  31 MISG      29.93F
HARRISON       SUNNY     67  32  27 SE7       29.95F
BENTONVILLE    SUNNY     68  39  34 S9G16     29.94F
ROGERS         SUNNY     69  40  34 S13G20    29.94F
SILOAM SPGS    SUNNY     68  37  32 SE14      29.92F
HIGHFILL       SUNNY     69  38  32 S13       29.93F
SPRINGDALE     SUNNY     68  37  32 S9G18     29.95F
$$

ARZ004-005-016-241800-
NORTH CENTRAL ARKANSAS

CITY           SKY/WX    TMP DP  RH WIND       PRES   REMARKS
BATESVILLE     SUNNY    N/A N/A N/A SW7       29.95F
FLIPPIN        SUNNY    N/A N/A N/A CALM      29.92F
MTN HOME       SUNNY     67  32  27 VRB5      29.94
$$

ARZ040-041-241800-
WEST CENTRAL ARKANSAS

CITY           SKY/WX    TMP DP  RH WIND       PRES   REMARKS
MENA           SUNNY     72  34  25 SW6       29.95F
MOUNT IDA      SUNNY     73  39  29 SE5       29.93
$$

ARZ009-017-025-026-028-241800-
NORTHEAST ARKANSAS

CITY           SKY/WX    TMP DP  RH WIND       PRES   REMARKS
JONESBORO      SUNNY     70  47  43 VRB3      29.92F
NEWPORT        SUNNY     69  42  37 N8        29.94F
WALNUT RIDGE   SUNNY     70  43  37 N6        29.93F
BLYTHEVILLE    SUNNY     69  54  58 VRB6      29.91F
NW BLYTHEVILLE SUNNY     68  52  56 N7        29.91F
$$

ARZ022-023-033-042-044-241800-
CENTRAL ARKANSAS

CITY           SKY/WX    TMP DP  RH WIND       PRES   REMARKS
LITTLE ROCK    MOSUNNY   72  34  24 N8        29.94F
N LITTLE ROCK    N/A     69  42  37 N5        29.95F
JACKSONVILLE   SUNNY     71  40  32 NW7       29.94F
CONWAY           N/A     70  39  32 CALM      29.94F
SEARCY         SUNNY     72  39  30 VRB3      29.96F
HOT SPRINGS    SUNNY     72  36  26 VRB6      29.95F
RUSSELLVILLE   SUNNY     70  39  32 CALM      29.95F
$$

ARZ036-241800-
EAST ARKANSAS

CITY           SKY/WX    TMP DP  RH WIND       PRES   REMARKS
WEST MEMPHIS   SUNNY     66  49  54 NW8G16    29.91F
$$

ARZ050-053-066-070-073-241800-
SOUTHWEST ARKANSAS

CITY           SKY/WX    TMP DP  RH WIND       PRES   REMARKS
ARKADELPHIA    FAIR      72  38  29 VRB5      29.96F
CAMDEN         SUNNY     73  30  20 NW5       29.96S
TEXARKANA      SUNNY     71  40  32 SW6       29.96F
EL DORADO      SUNNY     72  33  24 W8        29.96F
DE QUEEN       SUNNY     72  40  31 MISG      29.93F
$$

ARZ056-057-069-241800-
SOUTHEAST ARKANSAS

CITY           SKY/WX    TMP DP  RH WIND       PRES   REMARKS
PINE BLUFF     SUNNY     70  44  39 N7        29.95F
STUTTGART      SUNNY     70  45  40 NW8       29.96S
MONTICELLO     SUNNY     72  41  32 NW9       29.94F

$$






USA.gov is the U.S. government's official web portal to all federal, state and local government web resources and services.